• In Kazakhstan
  • List of Countries
  • For 7 days
  • Water Temperature
  • Satellite Maps
  • Weather Map
  • News
  • Weather Widgets
  • user-avatar
    Login

    Hourly Weather Ischgl

    Today, 22 October, Sunday

    Time Temperature Precipitation Wind Pressure Humidity
    00:00 +1°C° 0.3 mm 1 mps 574 mmHg 87%
    01:00 +1°C° 0.3 mm 1 mps 574 mmHg 91%
    02:00 -1°C° 0.7 mm 2 mps 574 mmHg 92%
    03:00 -1°C° 0.7 mm 2 mps 574 mmHg 93%
    04:00 -2°C° 0.7 mm 2 mps 573 mmHg 94%
    05:00 -2°C° 1 mm 2 mps 573 mmHg 94%
    06:00 -2°C° 1 mm 2 mps 573 mmHg 94%
    07:00 -3°C° 1 mm 2 mps 572 mmHg 94%
    08:00 -3°C° 1.2 mm 2 mps 572 mmHg 94%
    09:00 -3°C° 1.2 mm 2 mps 572 mmHg 93%
    10:00 -3°C° 1.2 mm 2 mps 572 mmHg 92%
    11:00 -4°C° 1 mm 3 mps 572 mmHg 92%
    12:00 -5°C° 1 mm 3 mps 571 mmHg 92%
    13:00 -5°C° 1 mm 3 mps 571 mmHg 91%
    14:00 -5°C° 0.8 mm 3 mps 571 mmHg 92%
    15:00 -5°C° 0.8 mm 3 mps 571 mmHg 92%
    16:00 -6°C° 0.8 mm 3 mps 570 mmHg 93%
    17:00 -6°C° 0.5 mm 3 mps 570 mmHg 93%
    18:00 -7°C° 0.5 mm 3 mps 570 mmHg 94%
    19:00 -7°C° 0.5 mm 3 mps 571 mmHg 95%
    20:00 -7°C° 0.4 mm 3 mps 571 mmHg 95%
    21:00 -7°C° 0.4 mm 3 mps 571 mmHg 95%
    22:00 -8°C° 0.4 mm 3 mps 571 mmHg 94%
    23:00 -8°C° 0.4 mm 3 mps 571 mmHg 94%

    Tomorrow, 23 October, Monday

    Time Temperature Precipitation Wind Pressure Humidity
    00:00 -8°C° 0.4 mm 3 mps 571 mmHg 94%
    01:00 -8°C° 0.4 mm 3 mps 571 mmHg 94%
    02:00 -7°C° 0.3 mm 2 mps 571 mmHg 94%
    03:00 -7°C° 0.3 mm 2 mps 571 mmHg 95%
    04:00 -7°C° 0.3 mm 2 mps 571 mmHg 95%
    05:00 -7°C° 0.5 mm 2 mps 571 mmHg 94%
    06:00 -7°C° 0.5 mm 2 mps 571 mmHg 94%
    07:00 -8°C° 0.5 mm 3 mps 571 mmHg 94%
    08:00 -7°C° 0.6 mm 3 mps 572 mmHg 93%
    09:00 -7°C° 0.6 mm 3 mps 572 mmHg 91%
    10:00 -6°C° 0.6 mm 3 mps 573 mmHg 89%
    11:00 -6°C° 0.5 mm 3 mps 573 mmHg 89%
    12:00 -5°C° 0.5 mm 3 mps 573 mmHg 88%
    13:00 -5°C° 0.5 mm 3 mps 573 mmHg 87%
    14:00 -5°C° 0.4 mm 3 mps 573 mmHg 88%
    15:00 -5°C° 0.4 mm 3 mps 573 mmHg 89%
    16:00 -5°C° 0.4 mm 3 mps 573 mmHg 90%
    17:00 -6°C° 0.4 mm 3 mps 573 mmHg 91%
    18:00 -5°C° 0.4 mm 2 mps 574 mmHg 93%
    19:00 -5°C° 0.4 mm 2 mps 574 mmHg 94%
    20:00 -5°C° 0.7 mm 2 mps 574 mmHg 94%
    21:00 -5°C° 0.7 mm 2 mps 574 mmHg 94%
    22:00 -5°C° 0.7 mm 2 mps 574 mmHg 94%
    23:00 -5°C° 0.7 mm 2 mps 574 mmHg 94%

    Day after tomorrow, 24 October, Tuesday

    Time Temperature Precipitation Wind Pressure Humidity
    00:00 -5°C° 0.7 mm 2 mps 575 mmHg 94%
    01:00 -5°C° 0.7 mm 2 mps 575 mmHg 94%
    02:00 -5°C° 0.4 mm 2 mps 575 mmHg 94%
    03:00 -5°C° 0.4 mm 2 mps 575 mmHg 94%
    04:00 -5°C° 0.4 mm 2 mps 575 mmHg 94%
    05:00 -5°C° 0.4 mm 2 mps 575 mmHg 94%
    06:00 -5°C° 0.4 mm 2 mps 575 mmHg 94%
    07:00 -5°C° 0.4 mm 2 mps 575 mmHg 94%
    08:00 -4°C° 0.2 mm 2 mps 576 mmHg 94%
    09:00 -3°C° 0.2 mm 2 mps 577 mmHg 94%
    10:00 -1°C° 0.2 mm 2 mps 577 mmHg 94%
    11:00 -1°C° 0 mm 2 mps 577 mmHg 93%
    12:00 +1°C° 0 mm 2 mps 577 mmHg 93%
    13:00 +1°C° 0 mm 2 mps 578 mmHg 92%
    14:00 +1°C° 0 mm 2 mps 578 mmHg 93%
    15:00 +1°C° 0 mm 2 mps 578 mmHg 94%
    16:00 +1°C° 0 mm 2 mps 578 mmHg 94%
    17:00 -1°C° 0 mm 2 mps 577 mmHg 95%
    18:00 -3°C° 0 mm 2 mps 577 mmHg 96%
    19:00 -4°C° 0 mm 2 mps 577 mmHg 96%
    20:00 -4°C° 0 mm 2 mps 577 mmHg 93%
    21:00 -4°C° 0 mm 2 mps 577 mmHg 91%
    22:00 -5°C° 0 mm 2 mps 577 mmHg 88%
    23:00 -4°C° 0 mm 2 mps 577 mmHg 85%

    25 October, Wednesday

    Time Temperature Precipitation Wind Pressure Humidity
    00:00 -4°C° 0 mm 2 mps 577 mmHg 82%
    01:00 -4°C° 0 mm 2 mps 577 mmHg 79%
    02:00 -4°C° 0 mm 2 mps 577 mmHg 76%
    03:00 -4°C° 0 mm 2 mps 577 mmHg 73%
    04:00 -3°C° 0 mm 2 mps 577 mmHg 71%
    05:00 -3°C° 0 mm 2 mps 577 mmHg 69%
    06:00 -3°C° 0 mm 2 mps 577 mmHg 68%
    07:00 -3°C° 0 mm 2 mps 577 mmHg 66%
    08:00 +1°C° 0 mm 1 mps 579 mmHg 71%
    09:00 +3°C° 0 mm 1 mps 580 mmHg 76%
    10:00 +5°C° 0 mm 1 mps 581 mmHg 82%
    11:00 +6°C° 0 mm 1 mps 581 mmHg 81%
    12:00 +7°C° 0 mm 1 mps 581 mmHg 80%
    13:00 +7°C° 0 mm 0 mps 582 mmHg 79%
    14:00 +6°C° 0 mm 0 mps 581 mmHg 81%
    15:00 +6°C° 0 mm 1 mps 581 mmHg 82%
    16:00 +6°C° 0 mm 1 mps 581 mmHg 83%
    17:00 +4°C° 0 mm 1 mps 580 mmHg 81%
    18:00 +3°C° 0 mm 1 mps 580 mmHg 78%
    19:00 +1°C° 0 mm 1 mps 579 mmHg 76%
    20:00 +1°C° 0 mm 1 mps 579 mmHg 73%
    21:00 +1°C° 0 mm 1 mps 579 mmHg 70%
    22:00 +1°C° 0 mm 1 mps 580 mmHg 67%
    23:00 +1°C° 0 mm 1 mps 580 mmHg 66%

    26 October, Thursday

    Time Temperature Precipitation Wind Pressure Humidity
    00:00 +1°C° 0 mm 1 mps 580 mmHg 65%
    01:00 +1°C° 0 mm 1 mps 580 mmHg 64%
    02:00 +1°C° 0 mm 1 mps 579 mmHg 64%
    03:00 +1°C° 0 mm 1 mps 579 mmHg 64%
    04:00 +1°C° 0 mm 1 mps 579 mmHg 63%
    05:00 +1°C° 0 mm 1 mps 579 mmHg 64%
    06:00 +1°C° 0 mm 1 mps 580 mmHg 64%
    07:00 -1°C° 0 mm 2 mps 580 mmHg 64%
    08:00 +3°C° 0 mm 1 mps 581 mmHg 68%
    09:00 +5°C° 0 mm 1 mps 582 mmHg 72%
    10:00 +7°C° 0 mm 1 mps 583 mmHg 76%
    11:00 +8°C° 0 mm 1 mps 583 mmHg 74%
    12:00 +9°C° 0 mm 1 mps 583 mmHg 72%
    13:00 +9°C° 0 mm 1 mps 583 mmHg 70%
    14:00 +9°C° 0 mm 1 mps 583 mmHg 72%
    15:00 +8°C° 0 mm 1 mps 582 mmHg 75%
    16:00 +7°C° 0 mm 1 mps 581 mmHg 77%
    17:00 +5°C° 0 mm 1 mps 581 mmHg 76%
    18:00 +4°C° 0 mm 1 mps 580 mmHg 75%
    19:00 +1°C° 0 mm 2 mps 579 mmHg 74%
    20:00 +1°C° 0 mm 2 mps 579 mmHg 72%
    21:00 +1°C° 0 mm 2 mps 579 mmHg 69%
    22:00 +1°C° 0 mm 2 mps 579 mmHg 66%
    23:00 +1°C° 0 mm 2 mps 579 mmHg 66%

    27 October, Friday

    Time Temperature Precipitation Wind Pressure Humidity
    00:00 +1°C° 0 mm 2 mps 579 mmHg 65%
    01:00 +1°C° 0 mm 2 mps 579 mmHg 64%
    02:00 +1°C° 0 mm 2 mps 578 mmHg 65%
    03:00 +1°C° 0 mm 2 mps 578 mmHg 66%
    04:00 +1°C° 0 mm 2 mps 578 mmHg 67%
    05:00 -1°C° 0 mm 2 mps 578 mmHg 68%
    06:00 -1°C° 0 mm 2 mps 578 mmHg 70%
    07:00 -1°C° 0 mm 2 mps 577 mmHg 72%
    08:00 +2°C° 0 mm 2 mps 578 mmHg 73%
    09:00 +4°C° 0 mm 2 mps 579 mmHg 73%
    10:00 +6°C° 0 mm 2 mps 580 mmHg 74%
    11:00 +6°C° 0 mm 2 mps 580 mmHg 72%
    12:00 +7°C° 0 mm 2 mps 580 mmHg 70%
    13:00 +7°C° 0 mm 2 mps 579 mmHg 67%
    14:00 +6°C° 0 mm 2 mps 579 mmHg 71%
    15:00 +5°C° 0 mm 2 mps 578 mmHg 75%
    16:00 +5°C° 0 mm 2 mps 577 mmHg 78%
    17:00 +3°C° 0 mm 2 mps 577 mmHg 82%
    18:00 +2°C° 0 mm 2 mps 576 mmHg 86%
    19:00 -1°C° 0 mm 2 mps 575 mmHg 89%
    20:00 +1°C° 0.3 mm 2 mps 575 mmHg 91%
    21:00 +1°C° 0.3 mm 2 mps 576 mmHg 92%
    22:00 0°C° 0.3 mm 3 mps 576 mmHg 93%
    23:00 0°C° 0.6 mm 3 mps 576 mmHg 94%
    Show more